Theta_e
314 314 314 314 314 314 315 314 314 314 315 315 314 315 316 316 316 315 314 314 313 313 313 314 314 315 312 309 307 324 329 326 315 313 310 310 307 306 303 305 306 304 306 308 309 309 309
315 315 315 315 314 314 314 313 313 314 314 314 315 314 314 315 315 316 315 314 313 312 313 313 314 315 309 301 318 320 318 315 313 314 313 311 308 309 306 306 305 307 307 307 308 308 308
316 316 316 315 315 314 314 313 312 313 313 313 314 314 314 314 315 315 316 314 314 313 313 314 315 314 309 307 313 321 318 317 319 318 311 311 313 310 308 304 309 307 303 305 306 306 305
317 316 316 316 316 315 314 313 313 312 313 313 313 313 313 313 314 314 314 315 314 314 314 314 316 314 309 319 318 314 320 318 319 315 314 317 316 311 309 310 308 304 303 298 305 306 307
317 316 316 316 316 316 315 314 313 313 313 313 313 312 312 312 312 314 314 314 314 314 314 315 314 312 308 316 311 312 320 315 313 315 316 316 313 308 308 303 301 303 296 298 301 307 306
317 317 317 317 316 316 315 314 314 314 313 313 313 312 312 312 312 313 312 314 317 314 314 318 316 310 314 311 313 310 317 317 311 311 309 308 307 303 303 301 292 296 298 299 299 304 305
318 318 317 317 317 316 315 315 314 314 314 314 314 313 312 311 311 311 311 314 313 312 314 309 311 309 312 316 315 309 312 315 312 308 301 306 301 298 301 303 302 301 300 299 303 306 303
318 318 317 317 317 316 315 315 315 314 314 314 314 313 312 311 311 311 310 310 313 314 305 314 313 313 315 314 308 308 312 308 307 301 304 302 299 304 305 305 303 302 299 298 302 305 303
318 318 317 317 317 316 315 315 315 314 314 314 313 313 312 311 310 309 310 313 319 317 306 308 312 311 311 312 306 307 310 308 304 301 302 300 303 307 304 302 301 301 299 299 298 302 304
317 317 317 317 315 315 316 315 315 315 314 314 313 312 311 310 308 317 314 319 321 318 300 304 306 308 311 310 304 312 311 308 304 300 303 302 306 304 302 300 301 296 303 302 300 298 293
317 317 316 315 315 315 315 315 315 314 314 313 313 312 311 309 309 313 317 321 320 317 291 306 306 315 312 306 307 306 313 307 301 301 302 298 301 301 300 301 303 299 303 301 301 298 297
316 316 316 315 315 315 314 314 314 314 313 313 313 312 309 313 311 315 320 320 316 300 292 303 307 305 304 306 306 308 308 310 307 302 303 301 305 302 301 303 303 304 301 300 300 297 291
316 316 315 315 315 314 314 313 313 313 313 312 312 311 307 314 314 321 320 313 298 294 307 301 303 304 304 302 304 304 303 301 298 294 294 300 300 304 304 299 303 301 298 289 288 290 289
315 315 315 315 314 314 313 313 313 312 312 312 310 307 312 316 321 320 316 303 294 302 302 307 305 305 301 304 304 303 302 300 303 301 297 295 293 301 304 300 298 299 298 291 285 288 291
314 314 314 315 314 314 313 312 312 311 311 310 307 317 318 320 321 319 309 298 299 301 304 302 303 300 301 303 302 302 301 301 304 304 297 296 296 305 306 307 305 299 296 301 294 295 292
313 314 314 314 314 314 313 312 312 312 311 309 306 315 317 322 321 315 306 300 302 305 304 303 298 301 297 301 301 300 300 304 303 305 307 301 294 302 304 306 305 302 302 292 294 286 286
312 313 313 313 313 313 313 313 312 312 309 306 309 313 318 322 320 311 302 303 303 307 306 302 301 300 300 299 300 299 299 303 305 304 305 303 299 297 302 299 298 299 297 298 297 294 287
311 311 312 313 313 312 312 312 312 310 307 308 314 307 320 322 308 310 304 306 300 304 307 305 304 302 301 301 299 298 298 301 305 305 300 303 299 293 295 302 304 303 300 299 292 291 295
311 311 311 312 312 311 312 312 312 311 308 305 308 309 320 319 301 305 307 305 305 303 304 303 302 303 304 300 296 299 299 304 304 303 301 302 296 290 292 298 301 298 300 300 299 297 292
311 311 311 311 311 311 311 312 311 310 309 307 308 303 310 311 310 305 303 301 302 306 302 303 302 303 301 299 301 297 298 302 304 303 305 303 297 292 287 292 296 294 297 299 296 291 292
310 309 310 310 310 310 311 311 311 310 309 307 309 305 307 301 304 304 303 301 299 298 303 303 300 300 299 295 297 297 299 300 302 303 303 301 290 293 294 295 295 295 294 295 294 296 291
310 309 309 309 309 309 310 310 311 311 308 307 303 303 306 302 304 302 298 299 298 299 298 298 298 299 299 295 296 293 296 297 296 301 298 301 290 293 291 294 294 292 294 295 296 296 296
308 308 308 308 309 309 309 309 310 311 308 308 309 311 304 301 302 299 301 300 299 299 300 301 299 297 296 298 301 301 302 301 300 297 296 295 291 291 286 293 292 289 295 296 297 298 297
307 307 307 308 308 308 308 309 309 310 310 309 309 306 301 296 300 300 299 299 298 299 297 300 300 298 301 306 304 303 301 300 300 299 299 293 291 290 286 289 281 293 300 300 297 298 299
306 306 306 307 307 308 308 308 308 309 311 310 310 306 302 296 299 300 299 299 299 299 298 299 300 303 305 301 295 293 295 296 298 299 298 299 295 286 283 285 290 293 297 296 296 295 301
305 306 306 306 306 307 308 308 307 308 309 309 311 312 305 297 298 301 299 299 296 296 297 299 303 305 302 296 292 287 287 291 292 294 300 298 297 287 286 283 281 294 300 302 300 290 303
305 305 305 305 306 306 307 308 306 306 308 306 308 314 307 298 301 302 298 297 300 297 295 298 298 298 301 293 290 287 288 294 289 289 290 290 288 284 284 284 289 298 301 303 288 292 302
304 304 305 305 305 306 307 307 306 306 306 307 305 311 307 300 301 304 303 299 299 297 292 297 296 296 296 290 290 290 290 294 293 294 292 291 288 286 286 284 283 301 300 293 299 303 303
304 304 305 305 305 305 305 305 305 305 306 308 302 311 308 301 300 307 308 309 306 305 299 298 298 296 298 294 293 293 291 293 292 287 298 290 294 291 292 292 301 302 302 306 305 302 302
Wind_Speed
15 15 15 16 16 16 15 17 19 17 17 16 17 18 18 17 16 15 12 11 11 11 10 11 11 11 9 10 11 11 12 9 10 12 16 15 15 15 17 17 17 18 18 18 18 16 12
15 16 16 15 15 15 15 15 16 18 17 18 17 17 18 17 17 15 14 12 11 10 10 10 10 10 8 13 11 14 13 12 13 14 15 16 13 14 15 18 18 14 19 15 18 14 14
17 17 17 16 14 14 15 17 16 16 18 17 17 17 16 16 17 17 13 13 10 10 10 10 9 8 11 18 1 15 13 12 13 16 13 15 16 13 9 13 18 13 17 12 15 17 16
16 17 16 16 15 15 15 15 17 17 15 16 16 17 18 18 17 17 19 16 12 10 10 10 9 9 9 6 12 11 14 15 15 11 15 9 4 11 16 14 7 12 14 17 19 22 21
15 15 15 15 15 15 15 16 16 16 17 16 16 16 17 19 19 20 21 14 11 9 9 9 8 10 10 3 9 13 14 14 9 8 6 6 5 12 14 13 13 14 15 20 20 20 17
17 16 16 16 15 14 15 16 16 16 18 17 16 16 17 19 19 18 21 12 7 5 7 10 11 10 11 11 11 13 14 13 10 10 10 10 9 13 14 13 13 18 20 17 16 14 14
17 16 16 16 15 15 16 16 16 17 18 20 18 16 17 18 19 15 13 5 5 6 8 10 4 11 6 4 2 11 13 12 12 9 13 14 12 14 17 17 18 20 21 16 15 8 13
15 15 15 15 16 15 16 16 16 17 18 19 21 19 19 19 19 15 10 9 11 6 9 21 21 18 18 6 6 11 16 14 15 15 15 15 16 16 17 17 17 17 17 18 16 18 14
14 15 14 15 15 14 15 17 17 17 18 18 20 20 20 22 19 13 15 17 14 11 8 15 20 20 15 12 10 9 15 16 14 16 16 16 16 19 14 15 18 16 14 16 18 17 18
14 14 14 13 13 15 16 16 18 19 19 20 19 20 21 21 12 9 14 21 17 6 7 10 10 8 11 9 9 15 13 13 15 16 16 16 18 19 12 12 13 18 16 17 17 16 14
13 14 14 13 13 14 15 16 18 19 20 22 21 20 20 10 13 8 8 3 7 3 6 11 11 10 15 14 10 16 15 14 16 16 11 14 15 18 15 17 17 15 15 16 17 15 17
13 14 14 15 14 15 15 16 17 19 21 23 24 21 20 4 7 15 14 5 5 7 5 9 10 12 13 16 7 17 15 15 15 17 16 17 17 15 14 15 17 14 13 14 15 14 16
13 14 15 15 15 15 15 16 18 20 21 24 26 25 14 10 7 7 10 7 7 6 10 5 9 15 16 13 13 11 15 15 16 12 16 19 20 18 16 14 16 9 5 8 12 14 15
12 14 14 15 16 16 17 16 18 18 21 24 28 30 8 10 9 5 7 9 7 12 5 4 5 4 10 12 11 13 17 14 19 18 16 14 12 16 17 21 18 18 17 12 20 15 17
14 13 15 16 16 17 17 16 17 19 20 24 31 8 7 6 11 5 9 10 4 6 9 9 10 9 10 4 4 6 9 7 9 4 12 14 17 11 10 15 15 14 15 11 11 16 15
16 15 15 16 16 16 18 18 18 19 22 20 9 11 3 6 5 5 8 13 5 4 5 6 11 7 5 4 4 3 1 1 5 7 5 12 15 12 15 13 16 15 12 8 5 7 17
15 15 16 16 16 17 18 18 19 20 23 28 5 6 7 5 5 7 10 4 4 10 5 6 9 9 9 4 5 2 5 6 10 10 9 9 8 11 15 14 16 13 14 13 14 13 6
14 16 16 16 16 17 16 17 18 18 24 12 7 4 7 5 7 7 9 9 4 5 0 5 4 6 7 7 5 6 5 4 3 8 8 8 4 8 16 22 18 17 19 13 10 9 12
15 14 14 14 15 16 16 16 17 16 13 8 6 7 6 6 6 4 10 3 4 3 4 5 4 3 7 7 5 5 2 7 7 4 4 2 2 7 10 14 6 9 14 13 13 8 17
13 13 14 15 15 16 16 15 16 15 10 7 6 4 6 7 9 8 9 3 4 8 4 4 5 4 8 8 7 5 6 3 2 3 8 3 9 10 10 19 11 12 13 15 10 6 11
14 16 15 15 16 16 16 15 16 17 12 5 6 2 4 3 3 7 4 8 5 3 4 4 4 3 6 5 8 10 13 9 4 11 6 3 7 11 16 20 22 24 24 20 22 22 21
14 15 14 14 14 15 16 16 16 17 21 5 5 6 7 9 5 6 4 5 3 4 1 3 3 6 4 7 12 15 16 13 10 6 6 4 3 9 15 18 21 26 25 26 27 24 25
13 14 13 14 13 12 14 14 15 14 13 5 8 6 4 7 6 6 1 5 4 3 6 3 4 5 8 8 6 10 14 14 12 11 11 6 3 7 14 16 18 16 19 23 23 22 23
13 14 14 14 13 12 12 13 13 13 8 7 7 7 6 9 9 7 5 3 5 7 6 11 11 7 9 10 11 16 20 21 20 15 13 8 5 3 7 14 14 10 8 7 12 10 13
14 14 14 13 12 13 10 9 12 11 12 7 7 5 5 7 10 9 7 6 3 2 11 7 2 5 6 9 8 10 13 15 20 20 16 18 12 3 4 9 18 24 20 14 15 12 3
14 14 13 13 12 12 12 7 9 11 11 5 6 6 4 3 1 12 10 5 6 6 6 5 6 4 4 4 3 6 5 13 4 6 4 2 10 5 3 6 6 4 4 5 10 10 13
15 14 14 13 13 11 12 6 6 8 9 2 4 7 4 4 5 7 3 6 0 4 7 5 4 1 2 2 3 6 10 12 9 5 6 4 2 7 8 6 9 10 3 2 8 4 7
14 14 13 12 12 11 9 6 5 7 7 2 3 5 4 3 9 11 9 8 5 3 4 3 6 4 2 4 2 3 4 4 6 4 5 7 6 5 5 6 9 15 10 6 6 10 8
12 13 12 11 10 8 8 7 6 7 7 4 2 1 2 2 6 12 13 14 10 9 4 4 4 2 1 2 3 4 5 5 11 6 2 4 7 3 7 4 4 9 10 11 6 7 9
Wind_Direction
349 348 350 350 347 346 345 343 340 343 343 345 348 346 346 346 343 343 327 315 305 298 293 298 299 303 287 229 254 134 135 137 175 201 215 229 224 232 227 234 233 232 249 248 265 265 276
342 343 346 348 346 342 342 343 342 337 341 339 341 344 342 339 338 335 334 314 303 294 289 289 296 306 253 258 98 140 161 164 176 200 221 234 228 231 251 242 253 233 247 252 265 249 255
343 345 345 343 342 339 341 340 342 341 336 337 335 335 337 335 333 330 323 317 291 283 281 281 292 275 264 246 212 151 177 191 216 206 227 230 250 280 244 273 266 262 260 257 253 262 245
340 338 338 337 338 337 338 341 337 337 336 332 332 330 330 330 329 325 322 303 278 271 268 272 283 271 266 239 243 240 193 206 212 219 251 252 253 280 268 283 266 271 246 257 245 230 227
327 328 328 332 333 333 333 335 335 334 332 331 328 325 324 325 327 328 328 308 266 253 252 254 250 220 258 154 215 229 216 221 195 222 240 321 280 251 250 246 257 229 247 241 242 246 213
317 321 326 327 328 328 329 331 330 332 328 328 326 322 320 319 323 327 329 316 209 190 221 223 257 265 250 243 184 213 222 225 201 218 227 215 241 238 231 242 233 239 221 233 259 262 187
311 314 318 320 321 324 324 325 327 327 325 324 325 322 318 315 316 322 327 232 213 189 212 226 208 248 134 164 27 192 201 209 234 218 233 220 238 234 232 230 252 276 287 295 293 243 217
304 306 307 313 317 319 317 317 317 320 320 319 321 323 317 311 309 308 289 241 268 316 285 225 246 260 285 308 221 212 185 200 211 224 218 240 228 250 257 261 261 259 262 274 279 291 287
316 313 305 308 310 309 311 314 315 317 316 315 315 316 314 311 308 281 222 235 252 298 281 287 206 223 233 249 251 224 191 207 213 223 233 230 243 232 228 258 266 258 260 270 273 277 269
316 316 314 309 305 306 309 311 314 316 313 311 312 312 313 321 289 277 212 228 236 237 273 221 171 208 188 200 241 242 188 223 239 239 236 248 248 259 236 237 265 269 248 253 262 267 268
316 318 318 313 314 312 309 310 312 315 314 311 309 311 309 315 302 254 80 10 353 153 275 152 144 127 166 188 126 209 175 213 237 249 276 271 288 306 275 271 268 253 273 282 275 272 273
326 324 319 316 318 315 313 313 315 316 314 310 307 309 322 216 222 259 315 309 234 229 250 154 141 182 173 211 187 160 182 208 218 240 241 255 263 274 298 322 319 265 282 273 268 270 258
324 322 319 318 317 316 317 317 318 317 315 312 308 306 307 292 289 197 244 227 223 239 236 167 165 154 197 182 183 179 195 201 220 219 237 246 243 244 238 257 268 266 237 272 257 242 251
324 325 323 318 317 318 318 320 317 317 316 314 311 311 243 231 257 263 252 222 236 272 58 64 319 246 225 188 208 188 182 212 212 245 270 268 259 235 226 237 244 246 237 235 258 266 282
322 323 323 321 319 318 320 321 319 321 321 320 311 264 237 206 243 222 252 227 267 352 18 357 326 255 237 165 347 223 229 284 297 263 270 282 279 292 245 267 281 277 275 288 309 300 284
323 324 326 323 319 320 321 323 324 325 321 323 315 288 211 146 169 213 249 240 271 51 1 299 284 340 54 327 276 302 186 297 316 337 277 296 297 299 301 298 283 265 288 306 289 279 263
320 323 324 324 321 323 324 325 326 330 326 316 256 240 113 183 183 233 246 295 78 98 342 331 341 320 331 304 226 210 235 311 13 319 307 305 275 271 287 273 271 261 251 248 239 231 257
314 322 322 322 321 324 327 327 329 336 334 332 290 247 127 189 236 229 249 310 349 293 57 260 275 280 304 356 306 316 292 314 16 323 317 11 319 273 277 291 287 263 280 240 261 248 253
309 315 320 321 322 324 324 328 330 337 5 320 280 298 142 224 249 251 301 222 119 325 339 333 321 55 354 330 318 280 321 36 73 330 24 7 309 288 275 244 252 291 284 268 333 322 253
305 306 315 320 319 320 321 325 327 328 348 320 278 267 170 203 268 290 324 275 147 130 286 326 314 327 288 275 231 281 270 162 283 189 102 85 261 249 265 292 302 261 275 289 282 257 275
307 311 316 317 320 318 323 328 327 323 331 293 249 8 32 308 62 334 334 321 287 226 91 352 261 214 356 306 300 248 265 287 234 157 173 239 249 262 276 283 284 284 284 268 254 262 261
303 306 310 311 316 319 322 328 330 328 327 236 309 347 348 278 322 277 210 229 295 66 295 276 218 310 354 306 288 300 310 311 294 279 185 177 276 266 267 268 266 263 264 266 264 264 256
299 300 304 308 310 315 318 324 333 337 334 306 346 343 279 298 256 256 292 44 74 348 279 245 354 287 283 319 336 296 286 273 254 279 290 155 228 276 276 285 298 285 257 251 256 259 265
305 300 302 305 307 307 313 326 326 342 337 307 319 309 285 281 272 292 41 329 280 359 321 331 323 307 351 337 307 275 259 250 252 233 214 231 249 281 293 302 268 275 312 292 283 293 291
300 298 299 301 307 303 306 320 332 334 335 296 305 322 331 313 308 295 238 217 272 303 264 272 320 47 360 310 302 282 253 222 238 231 212 205 223 233 245 254 284 287 277 292 318 285 355
298 295 297 298 298 299 303 292 324 334 340 297 303 315 305 314 190 348 336 47 305 298 291 67 74 32 340 287 266 267 297 326 152 130 96 82 209 182 187 255 278 40 354 312 331 264 30
303 300 300 300 298 297 294 282 307 323 334 268 304 339 292 279 280 2 14 326 271 269 287 343 8 15 252 269 267 269 264 273 284 160 187 154 138 226 235 254 269 291 204 281 243 9 352
301 301 302 302 298 298 289 296 312 310 317 231 297 312 305 307 299 301 292 287 281 285 275 23 272 199 216 232 267 308 295 291 274 337 251 222 190 194 203 240 246 9 342 295 351 325 329
301 302 301 302 297 291 284 284 287 287 293 240 269 345 12 252 306 322 293 286 289 267 224 209 307 297 59 250 258 275 279 298 308 287 288 263 227 223 207 249 280 279 293 291 337 332 316